CZ-4 DEB, 26262

Orbit data source: Space-Track

CZ-4 DEB, 26262 is space debris in SSO originally from a launch on Thu, 14 Oct 1999 UTC launched from the Taiyaun Space Center, China (TSC). Debris objects in space refer to the collection of defunct objects orbiting the Earth. Examples of debris include non-operational satellites, rocket bodies, and fragments generated from explosions, collisions, or faulty payload assembly.

Loading next visibility...
Identifier
26262, 1999-057EY
Orbit
SSO
Country
Flag of CNCN / PRC
Related business
Manufacturer
Unknown
Mission
Spacecraft
Bus & Motor
Unknown
Mass
Unknown
Launch date (UTC)
1999-10-14 (27 years ago)
Launch vehicle
Unknown
Launch site
Taiyaun Space Center, China (TSC)
Object type
Payload
Rocket body
Debris
Shape & HBR
Unknown shape, 0.1 m
Radar Cross Section
Medium (>0.1 m² and <1 m²)

Expand to show TLE details & history
Last TLE update: 21 hours ago

TLE from 21 hours ago
0 CZ-4 DEB
1 26262U 99057EY  26263.52797632  .00005901  00000-0  70761-3 0  9997
2 26262  98.3384   7.7247 0036991 194.0713 227.7854 14.83973613401943
Epoch: 2026-09-20T12:40Z
TLE epoch observation values (Epoch: 2026-09-20T12:40:17.154Z)
Latitude
60.54384°
Longitude
163.2739°
Altitude
644.567 km
Speed
7.532 km/s
True Right ascension
23h 31m 03s
True Declination
60° 23' 38"
Sunlit
Object was in full shadow at epoch
Visualization orbit readout
Latitude
Unknown
Longitude
Unknown
Altitude
Unknown
Speed
Unknown
Apparent Right ascension
Unknown
Apparent Declination
Unknown
Sunlit
N/A
Visualization observer readout
Local Sidereal Time
02:49:27
Azimuth
Unknown
Elevation
Unknown
Doppler factor
Unknown
Orbital elements
Apogee altitude
639.729 km
Perigee altitude
588.001 km
Semi-major axis
6,992.002 km
Eccentricity
0.0037
Inclination
98.3384°
RAAN
7.7247°
Arg. of periapsis
194.0713°
True anomaly
227.47243°
Mean anomaly
227.7854°
Eccentric anomaly
227.62882°
Mean motion
3.71228 °/min
Orbital period
96.98 mins
BSTAR
0.00070761
Loading maneuver chart data...
Computing Atmospheric mass density...
Loading historical data...
Loading historical data...
Loading historical data...
Loading historical data...
Loading historical data...
Loading historical data...
Loading historical data...

Documentation

Showing up to 5 results
|